Regional Weather Roundup
Issued by NWS

Home | Current Version | Previous Version | Graphics & Text | Print | Product List | Glossary On
Versions: 1 2 3 4 5 6 7 8 9 10 11 12 13 14 15 16 17 18 19 20 21 22 23 24 25 26 27 28 29 30 31 32 33 34 35 36 37 38 39 40 41 42 43 44 45 46 47 48 49 50
000
ASUS45 KABQ 020001
RWRNM
NEW MEXICO REGIONAL WEATHER ROUNDUP
NATIONAL WEATHER SERVICE ALBUQUERQUE NM
600 PM MDT SUN MAY 01 2016

NOTE: "FAIR" MEANS FEW OR NO CLOUDS BELOW 12,000 FEET AGL WITH NO
       SIGNIFICANT WEATHER OR OBSTRUCTIONS TO VISION.

      THIS PRODUCT IS RELEASED AS TWO VERSIONS.  ONE VERSION NEAR
      THE TOP OF THE HOUR CONTAINING PRELIMINARY DATA FROM ALBUQUERQUE
      AND OTHER STATIONS.  A FINAL VERSION WITH ADDITIONAL DATA IS
      ISSUED ABOUT 10 MINUTES AFTER THE HOUR.

NMZ501-503-504-510>518-020100-
NORTHWEST PLATEAU/NORTHCENTRAL MOUNTAINS

CITY           SKY/WX    TMP DP  RH WIND       PRES   REMARKS
FARMINGTON     CLOUDY    47  40  76 VRB7      30.07R
6HR MIN TEMP:  41; 6HR MAX TEMP:  51; 6HR PCP:  0.01;

SANTA FE       FAIR      47  31  53 SE18      30.14R
6HR MIN TEMP:  37; 6HR MAX TEMP:  48; 6HR PCP:  0.01;

TAOS           PTSUNNY   41  34  75 W5        30.17R

$$
NMZ402-403-502-505>509-020100-
WESTCENTRAL MOUNTAINS/SOUTHWEST MOUNTAINS

CITY           SKY/WX    TMP DP  RH WIND       PRES   REMARKS
GALLUP         FAIR      45  36  70 SE12      30.09R
6HR MIN TEMP:  39; 6HR MAX TEMP:  48; 6HR PCP:  0.06;

GRANTS         LGT RAIN  37  36  97 S13       30.16R WCI  28
SILVER CITY      N/A     64  23  20 W12G18    30.00R

$$
NMZ407-409-411-412-020100-
SOUTHERN DESERTS

CITY           SKY/WX    TMP DP  RH WIND       PRES   REMARKS
LORDSBURG      FAIR      68  25  19 W9        29.93R
DEMING         PTSUNNY   67  30  25 E16G36    29.93R
6HR MIN TEMP:  67; 6HR MAX TEMP:  75;

HOLLOMAN AFB   FAIR      64  31  29 NW9       30.00R
ALAMOGORDO     FAIR      64  30  27 W7        30.01R
T OR C         CLOUDY    55  40  56 NE22      30.03R
6HR MIN TEMP:  54; 6HR MAX TEMP:  64; 6HR PCP: TRACE;


$$
NMZ519>523-020100-
CENTRAL VALLEYS/CENTRAL HIGHLANDS

CITY           SKY/WX    TMP DP  RH WIND       PRES   REMARKS
ALBUQUERQUE    CLOUDY    46  31  55 E23G35    30.14R
6HR MIN TEMP:  45; 6HR MAX TEMP:  53; 6HR PCP: TRACE;

DOUBLE EAGLE   CLOUDY    45  30  57 E17       30.15R
MORIARTY ARPT  CLOUDY    39  30  69 E18G30    30.20R WCI  30
6HR MIN TEMP:  38; 6HR MAX TEMP:  41;

CLINES CORNERS CLOUDY    34  30  85 E20G25    30.17R WCI  23
6HR MIN TEMP:  32; 6HR MAX TEMP:  36; 6HR PCP:  0.01;

BELEN          CLOUDY    50  28  43 NE10      30.13R
6HR MIN TEMP:  49; 6HR MAX TEMP:  59;

SOCORRO        NOT AVBL

$$
NMZ524>526-539-540-020100-
SOUTHCENTRAL MOUNTAINS

CITY           SKY/WX    TMP DP  RH WIND       PRES   REMARKS
RUIDOSO        NOT AVBL

$$
NMZ527>531-020100-
NORTHEAST HIGHLANDS/NORTHEAST PLAINS

CITY           SKY/WX    TMP DP  RH WIND       PRES   REMARKS
LAS VEGAS      CLOUDY    35  30  82 E9        30.21R WCI  28
6HR MIN TEMP:  32; 6HR MAX TEMP:  36; 6HR PCP:  0.02;

RATON          PTSUNNY   41  26  55 N13G23    30.21R
6HR MIN TEMP:  37; 6HR MAX TEMP:  44; 6HR PCP: TRACE;

CLAYTON        LGT RAIN  38  35  89 N17G29    30.20F WCI  28
6HR MIN TEMP:  34; 6HR MAX TEMP:  40; 6HR PCP:  0.10;


$$
NMZ532>537-020100-
EASTCENTRAL PLAINS

CITY           SKY/WX    TMP DP  RH WIND       PRES   REMARKS
TUCUMCARI      LGT RAIN  44  38  79 NE12      30.21S
6HR MIN TEMP:  41; 6HR MAX TEMP:  45; 6HR PCP:  0.04;

CANNON AFB     CLOUDY    42  38  84 NE18      30.19R
6HR MIN TEMP:  40; 6HR MAX TEMP:  42; 6HR PCP: TRACE;

CLOVIS AIRPORT CLOUDY    43  34  70 N20       30.21S

$$
NMZ028-029-538-020100-
SOUTHEAST PLAINS

CITY           SKY/WX    TMP DP  RH WIND       PRES   REMARKS
ROSWELL        CLOUDY    47  38  71 NE14      30.19R
6HR MIN TEMP:  42; 6HR MAX TEMP:  47; 6HR PCP: TRACE;

ARTESIA        CLOUDY    48  37  66 N14       30.19R
CARLSBAD       CLOUDY    50  37  61 N20       30.15R
6HR MIN TEMP:  47; 6HR MAX TEMP:  52;

HOBBS          CLOUDY    50  36  57 N21       30.15R


$$




USA.gov is the U.S. government's official web portal to all federal, state and local government web resources and services.